Location: Newark
(40.3500°N, 15.2333°E)
Time: 22:00:52
(UTC+00:00)

Altair - Pass Details

Date: 20 January 2020
Orbit: 1502 x 1682 km, 47.2° (Epoch: 19 February)

Event Time Altitude Azimuth Distance (km) Brightness Sun altitude
Rises 07:48:21 0° 215° (SW) 4,867 10.2 13.4°
Reaches altitude 10° 07:51:34 10° 210° (SSW) 3,899 9.8 13.9°
Maximum altitude 08:01:10 52° 138° (SE) 2,010 9.2 15.2°
Drops below altitude 10° 08:10:51 10° 66° (ENE) 3,942 10.0 16.5°
Sets 08:14:06 0° 62° (ENE) 4,924 10.3 16.9°
